Eastsound, WA
on Saturday, January 12, 2013

Saturday
Previous Day Next Day
Daily Summary
 ActualAverage (KBLI)Record (KBLI)
Temperature
Mean Temperature °F 39°F  
Max Temperature 35°F 45°F 57°F (2002)
Min Temperature 24°F 33°F 4°F (1950)
Degree Days
Heating Degree Days 36 26  
Month to date heating degree days 318  
Cooling Degree Days 0 0  
Month to date cooling degree days 0  
Year to date cooling degree days 0  
Moisture
Dew Point 24°F   
Average Humidity 81    
Maximum Humidity 100    
Minimum Humidity 56    
Precipitation
Precipitation 0.00 in 0.17 in 3.30 in (1976)
Month to date precipitation 1.82  
Year to date precipitation 1.82  
Wind
Wind Speed 1 mph   
Max Wind Speed 7 mph   
Max Gust Speed mph   
Visibility 10 miles   
Events     

Key: T is trace of precipitation, MM is missing value
Source: NWS Daily Summary
Time(PST)TemperatureDew PointHumidity Pressure Visibility Wind DirectionWind SpeedGust SpeedPrecipitationEvents Conditions
12:15 AM 26.6°F 24.8°F 93% 30.32 in 10.0 miles Calm Calm - N/A   Clear
12:35 AM 28.4°F 26.6°F 93% 30.32 in 10.0 miles Calm Calm - N/A   Clear
1:15 AM 26.6°F 24.8°F 93% 30.32 in 10.0 miles Calm Calm - N/A   Clear
1:35 AM 26.6°F 24.8°F 93% 30.32 in 10.0 miles Calm Calm - N/A   Clear
2:15 AM 26.6°F 24.8°F 93% 30.32 in 10.0 miles Calm Calm - N/A   Clear
2:35 AM 26.6°F 24.8°F 93% 30.33 in 10.0 miles Calm Calm - N/A   Clear
2:55 AM 24.8°F 24.8°F 100% 30.33 in 10.0 miles Calm Calm - N/A   Clear
3:15 AM 28.4°F 26.6°F 93% 30.33 in 10.0 miles Calm Calm - N/A   Clear
3:35 AM 28.4°F 26.6°F 93% 30.34 in 10.0 miles Calm Calm - N/A   Clear
4:15 AM 26.6°F 24.8°F 93% 30.34 in 10.0 miles Calm Calm - N/A   Clear
4:35 AM 26.6°F 24.8°F 93% 30.34 in 10.0 miles Calm Calm - N/A   Clear
5:15 AM 28.4°F 26.6°F 93% 30.34 in 10.0 miles North - - N/A   Clear
5:35 AM 26.6°F 24.8°F 93% 30.34 in 10.0 miles Calm Calm - N/A   Clear
5:55 AM 26.6°F 24.8°F 93% 30.34 in 10.0 miles Calm Calm - N/A   Clear
6:15 AM 26.6°F 24.8°F 93% 30.34 in 10.0 miles Calm Calm - N/A   Clear
6:35 AM 26.6°F 26.6°F 100% 30.35 in 10.0 miles Calm Calm - N/A   Clear
6:55 AM 28.4°F 26.6°F 93% 30.35 in 10.0 miles Calm Calm - N/A   Clear
7:15 AM 30.2°F 24.8°F 80% 30.36 in 10.0 miles NE 4.6 mph - N/A   Clear
7:35 AM 30.2°F 24.8°F 80% 30.36 in 10.0 miles ENE 3.5 mph - N/A   Clear
7:55 AM 30.2°F 24.8°F 80% 30.36 in 10.0 miles ENE 4.6 mph - N/A   Clear
8:15 AM 28.4°F 24.8°F 86% 30.37 in 10.0 miles Calm Calm - N/A   Clear
8:55 AM 28.4°F 23.0°F 80% 30.38 in 10.0 miles ENE 5.8 mph - N/A   Clear
9:15 AM 28.4°F 23.0°F 80% 30.38 in 10.0 miles ENE 3.5 mph - N/A   Clear
9:35 AM 30.2°F 23.0°F 75% 30.39 in 10.0 miles ENE 6.9 mph - N/A   Clear
9:55 AM 30.2°F 23.0°F 75% 30.39 in 10.0 miles ENE 5.8 mph - N/A   Clear
10:15 AM 30.2°F 23.0°F 75% 30.40 in 10.0 miles East 4.6 mph - N/A   Clear
11:15 AM 32.0°F 23.0°F 69% 30.40 in 10.0 miles ENE 3.5 mph - N/A   Clear
11:35 AM 32.0°F 21.2°F 64% 30.40 in 10.0 miles ENE 5.8 mph - N/A   Clear
11:55 AM 32.0°F 21.2°F 64% 30.40 in 10.0 miles East 5.8 mph - N/A   Clear
12:15 PM 32.0°F 21.2°F 64% 30.39 in 10.0 miles East 5.8 mph - N/A   Clear
12:35 PM 32.0°F 21.2°F 64% 30.39 in 10.0 miles Calm Calm - N/A   Clear
12:55 PM 33.8°F 19.4°F 56% 30.40 in 10.0 miles NE 4.6 mph - N/A   Clear
1:15 PM 33.8°F 19.4°F 56% 30.40 in 10.0 miles NE 4.6 mph - N/A   Clear
1:35 PM 35.6°F 21.2°F 56% 30.39 in 10.0 miles NE 4.6 mph - N/A   Clear
1:55 PM 35.6°F 23.0°F 60% 30.40 in 10.0 miles North - - N/A   Clear
2:15 PM 35.6°F 23.0°F 60% 30.40 in 10.0 miles North 4.6 mph - N/A   Clear
2:35 PM 33.8°F 23.0°F 65% 30.39 in 10.0 miles North 4.6 mph - N/A   Clear
2:55 PM 33.8°F 24.8°F 70% 30.39 in 10.0 miles NNW 4.6 mph - N/A   Clear
3:15 PM 33.8°F 24.8°F 70% 30.39 in 10.0 miles Calm Calm - N/A   Clear
3:35 PM 33.8°F 24.8°F 70% 30.39 in 10.0 miles NNW 4.6 mph - N/A   Clear
3:55 PM 33.8°F 24.8°F 70% 30.39 in 10.0 miles North 4.6 mph - N/A   Clear
4:15 PM 32.0°F 24.8°F 75% 30.39 in 10.0 miles Calm Calm - N/A   Scattered Clouds
4:35 PM 32.0°F 24.8°F 75% 30.39 in 10.0 miles Calm Calm - N/A   Scattered Clouds
4:55 PM 30.2°F 26.6°F 86% 30.38 in 10.0 miles Calm Calm - N/A   Clear
5:15 PM 28.4°F 24.8°F 86% 30.39 in 10.0 miles Calm Calm - N/A   Clear
5:35 PM 28.4°F 24.8°F 86% 30.39 in 10.0 miles Calm Calm - N/A   Partly Cloudy
5:55 PM 28.4°F 24.8°F 86% 30.40 in 10.0 miles Calm Calm - N/A   Clear
6:15 PM 28.4°F 24.8°F 86% 30.40 in 10.0 miles Calm Calm - N/A   Clear
6:35 PM 28.4°F 24.8°F 86% 30.40 in 10.0 miles Calm Calm - N/A   Clear
6:55 PM 26.6°F 24.8°F 93% 30.41 in 10.0 miles Calm Calm - N/A   Clear
7:15 PM 26.6°F 24.8°F 93% 30.40 in 10.0 miles Calm Calm - N/A   Clear
7:55 PM 28.4°F 24.8°F 86% 30.39 in 10.0 miles Calm Calm - N/A   Clear
8:15 PM 26.6°F 24.8°F 93% 30.40 in 10.0 miles Calm Calm - N/A   Clear
8:35 PM 26.6°F 24.8°F 93% 30.39 in 10.0 miles Calm Calm - N/A   Clear
9:15 PM 26.6°F 24.8°F 93% 30.40 in 10.0 miles Calm Calm - N/A   Clear
9:35 PM 26.6°F 24.8°F 93% 30.41 in 10.0 miles Calm Calm - N/A   Clear
9:55 PM 26.6°F 24.8°F 93% 30.41 in 10.0 miles Calm Calm - N/A   Clear
10:35 PM 26.6°F 24.8°F 93% 30.43 in 10.0 miles Calm Calm - N/A   Scattered Clouds
11:15 PM 32.0°F 23.0°F 69% 30.43 in 10.0 miles ENE 4.6 mph - N/A   Partly Cloudy
11:35 PM 32.0°F 23.0°F 69% 30.44 in 10.0 miles Calm Calm - N/A   Scattered Clouds
11:55 PM 32.0°F 23.0°F 69% 30.44 in 10.0 miles East 4.6 mph - N/A   Scattered Clouds
Moon Phase
Jan. 12 Jan. 18 Jan. 26 Feb. 03 Feb. 10
Sunrise:08:00 AM (PST) Moon Rise:08:14 AM (PST)1/12
Sunset:04:39 PM (PST) Moon Set:06:26 PM (PST)1/12

Copyright © 2014 The Weather Underground, Inc.